| time (UTC) | temp C | wind direction | speed KPH | gust KPH | rain 1hr cm | rain 24hr cm | rain mn cm | humidity % | barometer mb |
| 20260506002444 | 10 | 150 | 9.7 | 12.9 | 0.00 | 0.03 | 0.03 | 81 | 1008.8 |
| 20260506001940 | 10 | 194 | 3.2 | 6.4 | 0.00 | 0.03 | 0.03 | 81 | 1009.0 |
| 20260506001437 | 10 | 43 | 4.8 | 4.8 | 0.00 | 0.03 | 0.03 | 80 | 1009.1 |
| 20260506000934 | 10 | 50 | 11.3 | 16.1 | 0.00 | 0.03 | 0.03 | 80 | 1009.1 |
| 20260506000432 | 10 | 63 | 4.8 | 6.4 | 0.00 | 0.03 | 0.03 | 79 | 1009.0 |
| 20260505235929 | 11 | 91 | 3.2 | 4.8 | 0.00 | 0.03 | 0.03 | 80 | 1008.9 |
| 20260505235427 | 11 | 104 | 4.8 | 6.4 | 0.00 | 0.03 | 0.03 | 80 | 1009.0 |
| 20260505234923 | 11 | 188 | 4.8 | 6.4 | 0.00 | 0.03 | 0.03 | 79 | 1009.4 |
| 20260505234421 | 11 | 78 | 1.6 | 3.2 | 0.00 | 0.03 | 0.03 | 79 | 1009.1 |
| 20260505233917 | 11 | 146 | 3.2 | 6.4 | 0.00 | 0.03 | 0.03 | 79 | 1008.7 |
| 20260505233415 | 11 | 19 | 3.2 | 9.7 | 0.00 | 0.03 | 0.03 | 78 | 1008.7 |
| 20260505232913 | 11 | 24 | 11.3 | 17.7 | 0.00 | 0.03 | 0.03 | 78 | 1008.8 |
| 20260505232410 | 11 | 342 | 4.8 | 11.3 | 0.00 | 0.03 | 0.03 | 78 | 1008.7 |
| 20260505231907 | 11 | 174 | 8.0 | 12.9 | 0.00 | 0.03 | 0.03 | 78 | 1008.7 |
| 20260505231404 | 11 | 77 | 9.7 | 11.3 | 0.00 | 0.03 | 0.03 | 78 | 1008.2 |
| 20260505230902 | 11 | 12 | 3.2 | 3.2 | 0.00 | 0.03 | 0.03 | 78 | 1008.5 |
| 20260505230359 | 11 | 178 | 3.2 | 4.8 | 0.00 | 0.03 | 0.03 | 77 | 1008.2 |
| 20260505225856 | 11 | 60 | 3.2 | 4.8 | 0.00 | 0.03 | 0.03 | 77 | 1007.9 |
| 20260505225353 | 11 | 89 | 3.2 | 4.8 | 0.00 | 0.03 | 0.03 | 77 | 1008.1 |
| 20260505224848 | 11 | 61 | 6.4 | 12.9 | 0.00 | 0.03 | 0.03 | 76 | 1007.8 |
| 20260505224346 | 11 | 63 | 6.4 | 9.7 | 0.00 | 0.03 | 0.03 | 77 | 1008.0 |
| 20260505223843 | 11 | 156 | 4.8 | 4.8 | 0.00 | 0.03 | 0.03 | 77 | 1007.6 |
| 20260505223340 | 11 | 80 | 1.6 | 3.2 | 0.00 | 0.03 | 0.03 | 76 | 1007.5 |
| 20260505222836 | 11 | 21 | 3.2 | 4.8 | 0.00 | 0.03 | 0.03 | 76 | 1007.6 |
| 20260505222332 | 11 | 18 | 9.7 | 14.5 | 0.00 | 0.03 | 0.03 | 76 | 1007.9 |
| 20260505221829 | 12 | 165 | 6.4 | 9.7 | 0.00 | 0.03 | 0.03 | 77 | 1007.7 |
| 20260505221326 | 12 | 77 | 3.2 | 4.8 | 0.00 | 0.03 | 0.03 | 77 | 1007.6 |
| 20260505220823 | 11 | 206 | 11.3 | 14.5 | 0.00 | 0.03 | 0.03 | 76 | 1007.6 |
| 20260505220320 | 12 | 43 | 9.7 | 14.5 | 0.00 | 0.03 | 0.03 | 77 | 1007.8 |
| 20260505215818 | 12 | 34 | 3.2 | 6.4 | 0.00 | 0.03 | 0.03 | 77 | 1007.8 |
| 20260505215316 | 12 | 180 | 3.2 | 4.8 | 0.00 | 0.03 | 0.03 | 77 | 1007.8 |
| 20260505214814 | 12 | 62 | 3.2 | 6.4 | 0.00 | 0.03 | 0.03 | 78 | 1007.7 |
| 20260505214311 | 12 | 105 | 12.9 | 17.7 | 0.00 | 0.03 | 0.03 | 77 | 1007.4 |
| 20260505213808 | 12 | 42 | 8.0 | 11.3 | 0.00 | 0.03 | 0.03 | 77 | 1007.4 |
| 20260505213306 | 12 | 76 | 16.1 | 25.7 | 0.00 | 0.03 | 0.03 | 77 | 1007.0 |
| 20260505212801 | 12 | 155 | 8.0 | 12.9 | 0.00 | 0.03 | 0.03 | 78 | 1007.2 |
| 20260505212259 | 12 | 33 | 4.8 | 14.5 | 0.00 | 0.03 | 0.03 | 78 | 1007.1 |
| 20260505211755 | 12 | 103 | 3.2 | 4.8 | 0.00 | 0.03 | 0.03 | 78 | 1007.1 |
| 20260505211253 | 12 | 154 | 8.0 | 12.9 | 0.00 | 0.03 | 0.03 | 78 | 1007.6 |
| 20260505210748 | 12 | 58 | 12.9 | 16.1 | 0.00 | 0.03 | 0.03 | 79 | 1007.6 |
| 20260505210246 | 12 | 107 | 3.2 | 4.8 | 0.00 | 0.03 | 0.03 | 81 | 1007.6 |
| 20260505205743 | 12 | 50 | 9.7 | 20.9 | 0.00 | 0.03 | 0.03 | 81 | 1007.2 |
| 20260505205241 | 12 | 56 | 9.7 | 12.9 | 0.00 | 0.03 | 0.03 | 81 | 1007.5 |
| 20260505204737 | 12 | 115 | 6.4 | 9.7 | 0.00 | 0.03 | 0.03 | 82 | 1007.1 |
| 20260505204235 | 12 | 38 | 8.0 | 14.5 | 0.00 | 0.03 | 0.03 | 82 | 1007.0 |
| 20260505203732 | 12 | 143 | 9.7 | 17.7 | 0.00 | 0.03 | 0.03 | 83 | 1007.0 |
| 20260505203229 | 12 | 129 | 6.4 | 9.7 | 0.00 | 0.03 | 0.03 | 83 | 1007.0 |
| 20260505202725 | 12 | 172 | 9.7 | 12.9 | 0.00 | 0.03 | 0.03 | 83 | 1007.1 |
| 20260505202221 | 12 | 64 | 6.4 | 9.7 | 0.00 | 0.03 | 0.03 | 84 | 1007.1 |
| 20260505201718 | 12 | 122 | 6.4 | 6.4 | 0.00 | 0.03 | 0.03 | 84 | 1006.7 |
| 20260505201216 | 12 | 80 | 4.8 | 9.7 | 0.00 | 0.03 | 0.03 | 85 | 1007.1 |
| 20260505200713 | 12 | 71 | 8.0 | 14.5 | 0.00 | 0.03 | 0.03 | 85 | 1006.9 |
| 20260505200210 | 12 | 29 | 3.2 | 4.8 | 0.00 | 0.03 | 0.03 | 85 | 1007.2 |
| 20260505195706 | 12 | 70 | 4.8 | 9.7 | 0.00 | 0.03 | 0.03 | 84 | 1007.0 |
| 20260505195203 | 12 | 25 | 9.7 | 12.9 | 0.00 | 0.03 | 0.03 | 83 | 1007.0 |
| 20260505194701 | 12 | 354 | 9.7 | 14.5 | 0.00 | 0.03 | 0.03 | 83 | 1006.9 |
| 20260505194157 | 12 | 126 | 6.4 | 12.9 | 0.00 | 0.03 | 0.03 | 83 | 1006.9 |
| 20260505193653 | 13 | 276 | 12.9 | 22.5 | 0.00 | 0.03 | 0.03 | 83 | 1007.1 |
| 20260505193150 | 13 | 147 | 9.7 | 14.5 | 0.00 | 0.03 | 0.03 | 84 | 1006.8 |
| 20260505192649 | 13 | 170 | 4.8 | 9.7 | 0.00 | 0.03 | 0.03 | 83 | 1006.8 |
| 20260505192146 | 13 | 61 | 8.0 | 12.9 | 0.00 | 0.03 | 0.03 | 84 | 1006.7 |
| 20260505191644 | 12 | 127 | 12.9 | 24.1 | 0.00 | 0.03 | 0.03 | 84 | 1006.6 |
| 20260505191142 | 13 | 180 | 4.8 | 9.7 | 0.00 | 0.03 | 0.03 | 84 | 1006.5 |
| 20260505190638 | 13 | 148 | 8.0 | 11.3 | 0.00 | 0.03 | 0.03 | 85 | 1006.6 |
| 20260505190138 | 13 | 40 | 8.0 | 12.9 | 0.00 | 0.03 | 0.03 | 85 | 1006.5 |
| 20260505185635 | 13 | 62 | 4.8 | 6.4 | 0.00 | 0.03 | 0.03 | 86 | 1006.3 |
| 20260505185131 | 13 | 99 | 4.8 | 6.4 | 0.00 | 0.03 | 0.03 | 86 | 1006.8 |
| 20260505184628 | 13 | 37 | 3.2 | 4.8 | 0.00 | 0.03 | 0.03 | 86 | 1006.8 |
| 20260505184125 | 13 | 171 | 4.8 | 4.8 | 0.00 | 0.03 | 0.03 | 86 | 1006.7 |
| 20260505183622 | 13 | 53 | 9.7 | 12.9 | 0.00 | 0.03 | 0.03 | 86 | 1006.6 |
| 20260505183120 | 13 | 10 | 9.7 | 12.9 | 0.00 | 0.03 | 0.03 | 87 | 1006.3 |
| 20260505182615 | 13 | 57 | 4.8 | 4.8 | 0.00 | 0.03 | 0.03 | 86 | 1006.5 |
| 20260505182112 | 13 | 136 | 3.2 | 3.2 | 0.00 | 0.03 | 0.03 | 87 | 1005.9 |
| 20260505181609 | 13 | 133 | 3.2 | 3.2 | 0.00 | 0.03 | 0.03 | 88 | 1006.2 |
| 20260505181107 | 13 | 175 | 3.2 | 4.8 | 0.00 | 0.03 | 0.03 | 88 | 1005.9 |
| 20260505180602 | 13 | 194 | 3.2 | 4.8 | 0.00 | 0.03 | 0.03 | 88 | 1005.9 |
| 20260505180100 | 13 | 45 | 4.8 | 9.7 | 0.00 | 0.03 | 0.03 | 88 | 1006.1 |
| 20260505175555 | 13 | 146 | 6.4 | 6.4 | 0.00 | 0.03 | 0.03 | 88 | 1006.0 |
| 20260505175052 | 13 | 30 | 4.8 | 6.4 | 0.00 | 0.03 | 0.03 | 88 | 1006.1 |
| 20260505174549 | 13 | 47 | 4.8 | 4.8 | 0.00 | 0.03 | 0.03 | 88 | 1006.3 |
| 20260505174045 | 13 | 115 | 6.4 | 9.7 | 0.00 | 0.03 | 0.03 | 88 | 1006.1 |
| 20260505173542 | 13 | 166 | 6.4 | 11.3 | 0.00 | 0.03 | 0.03 | 89 | 1005.7 |
| 20260505173039 | 13 | 157 | 8.0 | 12.9 | 0.00 | 0.03 | 0.03 | 89 | 1005.6 |
| 20260505172537 | 13 | 131 | 1.6 | 3.2 | 0.00 | 0.03 | 0.03 | 89 | 1005.7 |
| 20260505172033 | 13 | 26 | 8.0 | 11.3 | 0.00 | 0.03 | 0.03 | 89 | 1005.5 |
| 20260505171528 | 13 | 119 | 6.4 | 9.7 | 0.00 | 0.03 | 0.03 | 89 | 1005.3 |
| 20260505171025 | 13 | 189 | 14.5 | 17.7 | 0.00 | 0.03 | 0.03 | 89 | 1005.3 |
| 20260505170522 | 13 | 27 | 8.0 | 16.1 | 0.00 | 0.03 | 0.03 | 89 | 1005.2 |
| 20260505170018 | 13 | 190 | 3.2 | 3.2 | 0.00 | 0.03 | 0.03 | 89 | 1005.4 |
| 20260505165513 | 13 | 35 | 4.8 | 11.3 | 0.00 | 0.03 | 0.03 | 89 | 1005.4 |
| 20260505165009 | 13 | 75 | 6.4 | 9.7 | 0.00 | 0.03 | 0.03 | 89 | 1005.3 |
| 20260505164506 | 13 | 21 | 9.7 | 14.5 | 0.00 | 0.03 | 0.03 | 89 | 1005.1 |
| 20260505164004 | 13 | 50 | 6.4 | 11.3 | 0.00 | 0.03 | 0.03 | 89 | 1005.1 |
| 20260505163502 | 14 | 318 | 4.8 | 4.8 | 0.00 | 0.03 | 0.03 | 89 | 1005.1 |
| 20260505163002 | 14 | 168 | 3.2 | 6.4 | 0.00 | 0.03 | 0.03 | 89 | 1004.8 |
| 20260505162456 | 14 | 166 | 4.8 | 14.5 | 0.00 | 0.03 | 0.03 | 89 | 1004.7 |
| 20260505161953 | 14 | 52 | 9.7 | 16.1 | 0.00 | 0.03 | 0.03 | 89 | 1004.7 |
| 20260505161450 | 15 | 127 | 6.4 | 9.7 | 0.00 | 0.03 | 0.03 | 89 | 1004.9 |
| 20260505160947 | 15 | 161 | 4.8 | 6.4 | 0.00 | 0.03 | 0.03 | 89 | 1005.0 |
| 20260505160446 | 15 | 48 | 4.8 | 6.4 | 0.00 | 0.03 | 0.03 | 89 | 1004.7 |
| 20260505152917 | 15 | 359 | 6.4 | 11.3 | 0.00 | 0.03 | 0.03 | 90 | 1004.2 |
| 20260505152414 | 15 | 68 | 4.8 | 4.8 | 0.00 | 0.03 | 0.03 | 90 | 1004.3 |
| 20260505151913 | 16 | 16 | 3.2 | 4.8 | 0.00 | 0.03 | 0.03 | 90 | 1004.2 |
| 20260505151410 | 16 | 358 | 4.8 | 6.4 | 0.00 | 0.03 | 0.03 | 90 | 1004.1 |
| 20260505150907 | 17 | 47 | 8.0 | 14.5 | 0.00 | 0.03 | 0.03 | 89 | 1004.0 |
| 20260505150404 | 18 | 42 | 3.2 | 4.8 | 0.00 | 0.03 | 0.03 | 89 | 1003.9 |
| 20260505140328 | 18 | 157 | 6.4 | 9.7 | 0.00 | 0.03 | 0.03 | 88 | 1003.2 |
| 20260505130251 | 18 | 72 | 1.6 | 3.2 | 0.00 | 0.03 | 0.03 | 87 | 1003.7 |
| 20260505124742 | 18 | 82 | 0.0 | 0.0 | 0.00 | 0.03 | 0.03 | 87 | 1003.4 |
| 20260505124239 | 18 | 149 | 3.2 | 4.8 | 0.00 | 0.03 | 0.03 | 87 | 1003.7 |
| 20260505123734 | 18 | 48 | 1.6 | 3.2 | 0.00 | 0.03 | 0.03 | 87 | 1003.4 |
| 20260505123231 | 18 | 66 | 1.6 | 1.6 | 0.00 | 0.03 | 0.03 | 88 | 1003.0 |
| 20260505122728 | 18 | 124 | 0.0 | 1.6 | 0.00 | 0.03 | 0.03 | 87 | 1002.8 |
| 20260505122225 | 18 | 124 | 1.6 | 3.2 | 0.00 | 0.03 | 0.03 | 88 | 1002.8 |
| 20260505121722 | 17 | 129 | 0.0 | 0.0 | 0.00 | 0.03 | 0.03 | 88 | 1002.9 |
| 20260505121218 | 17 | 87 | 1.6 | 3.2 | 0.00 | 0.03 | 0.03 | 88 | 1002.9 |
| 20260505120715 | 17 | 113 | 0.0 | 1.6 | 0.00 | 0.03 | 0.03 | 88 | 1002.8 |
| 20260505120211 | 17 | 121 | 0.0 | 0.0 | 0.00 | 0.03 | 0.03 | 88 | 1003.0 |
| 20260505115704 | 17 | 118 | 0.0 | 1.6 | 0.00 | 0.03 | 0.03 | 88 | 1002.9 |
| 20260505115203 | 17 | 161 | 0.0 | 1.6 | 0.00 | 0.03 | 0.03 | 88 | 1002.9 |
| 20260505114700 | 17 | 121 | 0.0 | 0.0 | 0.00 | 0.03 | 0.03 | 88 | 1003.0 |
| 20260505114156 | 17 | 110 | 0.0 | 1.6 | 0.00 | 0.03 | 0.03 | 89 | 1003.0 |
| 20260505113652 | 17 | 104 | 1.6 | 1.6 | 0.00 | 0.03 | 0.03 | 88 | 1003.0 |
| 20260505113149 | 17 | 116 | 1.6 | 3.2 | 0.00 | 0.03 | 0.03 | 88 | 1002.9 |
| 20260505112645 | 17 | 113 | 4.8 | 6.4 | 0.00 | 0.03 | 0.03 | 88 | 1003.0 |
| 20260505112144 | 17 | 115 | 0.0 | 1.6 | 0.00 | 0.03 | 0.03 | 88 | 1003.0 |
| 20260505111643 | 17 | 143 | 0.0 | 0.0 | 0.00 | 0.03 | 0.03 | 89 | 1003.0 |
| 20260505111139 | 17 | 142 | 3.2 | 3.2 | 0.00 | 0.03 | 0.03 | 89 | 1003.1 |
| 20260505110635 | 17 | 112 | 1.6 | 1.6 | 0.00 | 0.03 | 0.03 | 89 | 1002.9 |
| 20260505110133 | 17 | 113 | 4.8 | 6.4 | 0.00 | 0.03 | 0.03 | 89 | 1003.0 |
| 20260505102108 | 17 | 150 | 4.8 | 4.8 | 0.00 | 0.03 | 0.03 | 91 | 1002.7 |
| 20260505101607 | 17 | 135 | 1.6 | 1.6 | 0.00 | 0.03 | 0.03 | 91 | 1002.7 |
| 20260505101102 | 17 | 125 | 0.0 | 0.0 | 0.00 | 0.03 | 0.03 | 92 | 1002.7 |
| 20260505100559 | 17 | 116 | 1.6 | 3.2 | 0.00 | 0.03 | 0.03 | 92 | 1002.7 |
| 20260505100056 | 17 | 152 | 3.2 | 4.8 | 0.00 | 0.03 | 0.03 | 92 | 1002.8 |
| 20260505095552 | 17 | 125 | 3.2 | 3.2 | 0.00 | 0.03 | 0.03 | 93 | 1002.9 |
| 20260505095049 | 17 | 123 | 1.6 | 1.6 | 0.00 | 0.03 | 0.03 | 93 | 1002.6 |
| 20260505094545 | 17 | 292 | 1.6 | 1.6 | 0.00 | 0.03 | 0.03 | 93 | 1002.5 |
| 20260505094042 | 17 | 123 | 3.2 | 3.2 | 0.00 | 0.03 | 0.03 | 93 | 1002.5 |
| 20260505093538 | 17 | 137 | 4.8 | 4.8 | 0.00 | 0.03 | 0.03 | 93 | 1002.7 |
| 20260505093036 | 17 | 128 | 0.0 | 1.6 | 0.00 | 0.03 | 0.03 | 93 | 1002.6 |
| 20260505092533 | 17 | 113 | 0.0 | 1.6 | 0.00 | 0.03 | 0.03 | 93 | 1002.6 |
| 20260505092031 | 17 | 108 | 6.4 | 11.3 | 0.00 | 0.03 | 0.03 | 93 | 1002.7 |
| 20260505091528 | 17 | 132 | 3.2 | 4.8 | 0.00 | 0.03 | 0.03 | 93 | 1002.5 |
| 20260505091026 | 17 | 111 | 1.6 | 3.2 | 0.00 | 0.03 | 0.03 | 93 | 1002.6 |
| 20260505090524 | 17 | 123 | 3.2 | 4.8 | 0.00 | 0.03 | 0.03 | 93 | 1002.6 |
| 20260505090021 | 17 | 120 | 0.0 | 0.0 | 0.00 | 0.03 | 0.03 | 94 | 1002.4 |
| 20260505085519 | 17 | 152 | 4.8 | 6.4 | 0.00 | 0.03 | 0.03 | 94 | 1002.6 |
| 20260505085017 | 17 | 132 | 3.2 | 3.2 | 0.00 | 0.03 | 0.03 | 94 | 1002.8 |
| 20260505084515 | 17 | 104 | 1.6 | 1.6 | 0.00 | 0.03 | 0.03 | 94 | 1002.6 |
| 20260505084013 | 17 | 108 | 1.6 | 1.6 | 0.00 | 0.03 | 0.03 | 94 | 1002.8 |
| 20260505083510 | 17 | 166 | 4.8 | 4.8 | 0.00 | 0.03 | 0.03 | 94 | 1002.6 |
| 20260505083006 | 17 | 105 | 1.6 | 3.2 | 0.00 | 0.03 | 0.03 | 94 | 1002.6 |
| 20260505082502 | 17 | 112 | 1.6 | 3.2 | 0.00 | 0.03 | 0.03 | 94 | 1002.6 |
| 20260505081959 | 17 | 129 | 4.8 | 6.4 | 0.00 | 0.03 | 0.03 | 94 | 1002.7 |
| 20260505081456 | 17 | 104 | 0.0 | 1.6 | 0.00 | 0.03 | 0.03 | 94 | 1002.8 |
| 20260505080952 | 17 | 138 | 1.6 | 3.2 | 0.00 | 0.03 | 0.03 | 94 | 1002.8 |
| 20260505080448 | 17 | 159 | 1.6 | 1.6 | 0.00 | 0.03 | 0.03 | 93 | 1002.8 |
| 20260505075944 | 17 | 129 | 3.2 | 4.8 | 0.00 | 0.03 | 0.03 | 93 | 1002.7 |
| 20260505075441 | 17 | 167 | 0.0 | 1.6 | 0.00 | 0.03 | 0.03 | 93 | 1002.9 |
| 20260505074938 | 17 | 104 | 1.6 | 1.6 | 0.00 | 0.03 | 0.03 | 93 | 1003.0 |
| 20260505074436 | 16 | 66 | 3.2 | 3.2 | 0.00 | 0.03 | 0.03 | 93 | 1002.9 |
| 20260505073932 | 16 | 112 | 4.8 | 6.4 | 0.00 | 0.03 | 0.03 | 93 | 1003.2 |
| 20260505073430 | 17 | 155 | 4.8 | 4.8 | 0.00 | 0.03 | 0.03 | 94 | 1003.4 |
| 20260505072927 | 16 | 114 | 1.6 | 3.2 | 0.00 | 0.03 | 0.03 | 94 | 1003.5 |
| 20260505072423 | 17 | 190 | 6.4 | 11.3 | 0.00 | 0.03 | 0.03 | 93 | 1003.5 |
| 20260505071920 | 17 | 44 | 3.2 | 12.9 | 0.00 | 0.03 | 0.03 | 93 | 1004.0 |
| 20260505071416 | 17 | 215 | 6.4 | 9.7 | 0.00 | 0.03 | 0.03 | 92 | 1004.0 |
| 20260505070914 | 17 | 169 | 3.2 | 3.2 | 0.00 | 0.03 | 0.03 | 91 | 1004.3 |
| 20260505070410 | 18 | 79 | 4.8 | 6.4 | 0.00 | 0.03 | 0.03 | 89 | 1004.1 |
| 20260505065906 | 18 | 161 | 3.2 | 4.8 | 0.00 | 0.03 | 0.03 | 87 | 1004.0 |
| 20260505065402 | 18 | 95 | 1.6 | 3.2 | 0.00 | 0.03 | 0.03 | 87 | 1003.9 |
| 20260505064859 | 18 | 167 | 3.2 | 6.4 | 0.13 | 0.03 | 0.03 | 88 | 1004.2 |
| 20260505064356 | 18 | 40 | 1.6 | 3.2 | 0.13 | 0.03 | 0.03 | 88 | 1004.1 |
| 20260505063855 | 18 | 66 | 1.6 | 3.2 | 0.00 | 0.00 | 0.00 | 88 | 1004.1 |
| 20260505063355 | 18 | 52 | 1.6 | 3.2 | 0.00 | 0.00 | 0.00 | 89 | 1003.9 |
| 20260505062852 | 18 | 124 | 1.6 | 1.6 | 0.00 | 0.00 | 0.00 | 89 | 1003.9 |
| 20260505062349 | 18 | 49 | 3.2 | 3.2 | 0.00 | 0.00 | 0.00 | 91 | 1004.3 |
| 20260505061846 | 17 | 82 | 3.2 | 4.8 | 0.00 | 0.00 | 0.00 | 92 | 1003.9 |
| 20260505061344 | 17 | 51 | 0.0 | 0.0 | 0.00 | 0.00 | 0.00 | 92 | 1003.6 |
| 20260505060841 | 17 | 99 | 1.6 | 1.6 | 0.00 | 0.00 | 0.00 | 92 | 1003.0 |
| 20260505060338 | 17 | 159 | 0.0 | 0.0 | 0.00 | 0.00 | 0.00 | 91 | 1002.9 |
| 20260505055834 | 17 | 173 | 0.0 | 1.6 | 0.00 | 0.00 | 0.00 | 92 | 1002.7 |
| 20260505055330 | 17 | 121 | 0.0 | 0.0 | 0.00 | 0.00 | 0.00 | 92 | 1002.5 |
| 20260505054828 | 17 | 121 | 0.0 | 0.0 | 0.00 | 0.00 | 0.00 | 92 | 1002.7 |
| 20260505054325 | 17 | 122 | 0.0 | 1.6 | 0.00 | 0.00 | 0.00 | 92 | 1002.7 |
| 20260505053823 | 17 | 162 | 0.0 | 1.6 | 0.00 | 0.00 | 0.00 | 91 | 1002.7 |
| 20260505053320 | 17 | 132 | 1.6 | 1.6 | 0.00 | 0.00 | 0.00 | 91 | 1002.8 |
| 20260505052817 | 17 | 174 | 1.6 | 3.2 | 0.00 | 0.00 | 0.00 | 92 | 1002.6 |
| 20260505052314 | 17 | 129 | 0.0 | 0.0 | 0.00 | 0.00 | 0.00 | 92 | 1002.5 |
| 20260505051811 | 17 | 184 | 0.0 | 0.0 | 0.00 | 0.00 | 0.00 | 93 | 1002.5 |
| 20260505051308 | 17 | 140 | 0.0 | 0.0 | 0.00 | 0.00 | 0.00 | 92 | 1002.5 |
| 20260505050806 | 17 | 209 | 1.6 | 1.6 | 0.00 | 0.00 | 0.00 | 93 | 1002.6 |
| 20260505050305 | 17 | 189 | 0.0 | 1.6 | 0.00 | 0.00 | 0.00 | 92 | 1002.9 |
| 20260505041734 | 21 | 153 | 3.2 | 4.8 | 0.00 | 0.00 | 0.00 | 65 | 1002.9 |
| 20260505041231 | 21 | 212 | 8.0 | 12.9 | 0.00 | 0.00 | 0.00 | 65 | 1003.2 |
| 20260505040728 | 21 | 116 | 3.2 | 11.3 | 0.00 | 0.00 | 0.00 | 65 | 1003.2 |
| 20260505040225 | 21 | 301 | 3.2 | 4.8 | 0.00 | 0.00 | 0.00 | 65 | 1002.6 |
| 20260505035723 | 21 | 339 | 3.2 | 6.4 | 0.00 | 0.00 | 0.00 | 65 | 1002.9 |
| 20260505035218 | 21 | 229 | 6.4 | 11.3 | 0.00 | 0.00 | 0.00 | 65 | 1002.9 |
| 20260505034715 | 21 | 97 | 3.2 | 4.8 | 0.00 | 0.00 | 0.00 | 65 | 1002.9 |
| 20260505034212 | 21 | 253 | 6.4 | 9.7 | 0.00 | 0.00 | 0.00 | 65 | 1003.1 |
| 20260505033708 | 21 | 96 | 1.6 | 1.6 | 0.00 | 0.00 | 0.00 | 65 | 1003.2 |
| 20260505033207 | 21 | 94 | 1.6 | 1.6 | 0.00 | 0.00 | 0.00 | 65 | 1003.6 |
| 20260505032705 | 21 | 197 | 3.2 | 4.8 | 0.00 | 0.00 | 0.00 | 66 | 1003.7 |
| 20260505032200 | 21 | 91 | 6.4 | 6.4 | 0.00 | 0.00 | 0.00 | 65 | 1004.0 |
| 20260505031658 | 21 | 180 | 4.8 | 6.4 | 0.00 | 0.00 | 0.00 | 65 | 1004.1 |
| 20260505031154 | 21 | 181 | 1.6 | 1.6 | 0.00 | 0.00 | 0.00 | 65 | 1004.1 |
| 20260505030651 | 21 | 229 | 6.4 | 6.4 | 0.00 | 0.00 | 0.00 | 65 | 1004.2 |
| 20260505030147 | 21 | 201 | 3.2 | 3.2 | 0.00 | 0.00 | 0.00 | 66 | 1004.2 |
| 20260505025643 | 21 | 214 | 4.8 | 4.8 | 0.00 | 0.00 | 0.00 | 65 | 1004.1 |
| 20260505025142 | 21 | 212 | 6.4 | 6.4 | 0.00 | 0.00 | 0.00 | 66 | 1004.0 |
| 20260505024639 | 21 | 219 | 6.4 | 9.7 | 0.00 | 0.00 | 0.00 | 66 | 1004.1 |
| 20260505024136 | 21 | 217 | 6.4 | 9.7 | 0.00 | 0.00 | 0.00 | 66 | 1004.0 |
| 20260505023633 | 21 | 223 | 1.6 | 3.2 | 0.00 | 0.00 | 0.00 | 66 | 1004.0 |
| 20260505023130 | 21 | 229 | 3.2 | 4.8 | 0.00 | 0.00 | 0.00 | 66 | 1004.1 |
| 20260505022628 | 21 | 129 | 0.0 | 0.0 | 0.00 | 0.00 | 0.00 | 67 | 1003.9 |
| 20260505022124 | 21 | 157 | 0.0 | 1.6 | 0.00 | 0.00 | 0.00 | 66 | 1003.8 |
| 20260505021621 | 21 | 98 | 4.8 | 6.4 | 0.00 | 0.00 | 0.00 | 66 | 1003.9 |
| 20260505021118 | 22 | 220 | 3.2 | 3.2 | 0.00 | 0.00 | 0.00 | 66 | 1003.9 |
| 20260505020613 | 22 | 209 | 3.2 | 4.8 | 0.00 | 0.00 | 0.00 | 66 | 1004.0 |
| 20260505020110 | 22 | 210 | 1.6 | 1.6 | 0.00 | 0.00 | 0.00 | 65 | 1004.0 |
| 20260505015607 | 22 | 228 | 3.2 | 3.2 | 0.00 | 0.00 | 0.00 | 65 | 1004.0 |
| 20260505015104 | 22 | 204 | 3.2 | 3.2 | 0.00 | 0.00 | 0.00 | 64 | 1003.7 |
| 20260505014600 | 22 | 237 | 8.0 | 9.7 | 0.00 | 0.00 | 0.00 | 64 | 1003.8 |
| 20260505014058 | 22 | 217 | 4.8 | 4.8 | 0.00 | 0.00 | 0.00 | 63 | 1003.6 |
| 20260505013555 | 22 | 229 | 4.8 | 6.4 | 0.00 | 0.00 | 0.00 | 64 | 1003.6 |
| 20260505013052 | 22 | 233 | 3.2 | 6.4 | 0.00 | 0.00 | 0.00 | 63 | 1003.8 |
| 20260505012550 | 22 | 222 | 6.4 | 11.3 | 0.00 | 0.00 | 0.00 | 62 | 1003.7 |
| 20260505012047 | 22 | 192 | 4.8 | 4.8 | 0.00 | 0.00 | 0.00 | 62 | 1003.7 |
| 20260505011542 | 22 | 284 | 1.6 | 1.6 | 0.00 | 0.00 | 0.00 | 63 | 1003.6 |
| 20260505011040 | 22 | 191 | 9.7 | 11.3 | 0.00 | 0.00 | 0.00 | 62 | 1003.6 |
| 20260505010535 | 22 | 229 | 6.4 | 9.7 | 0.00 | 0.00 | 0.00 | 62 | 1003.6 |
| 20260505010032 | 22 | 192 | 4.8 | 6.4 | 0.00 | 0.00 | 0.00 | 63 | 1003.4 |
| 20260505005528 | 23 | 218 | 6.4 | 6.4 | 0.00 | 0.00 | 0.00 | 63 | 1003.5 |
| 20260505005026 | 23 | 187 | 3.2 | 3.2 | 0.00 | 0.00 | 0.00 | 63 | 1003.5 |
| 20260505004523 | 23 | 223 | 3.2 | 3.2 | 0.00 | 0.00 | 0.00 | 63 | 1003.4 |
| 20260505004019 | 23 | 222 | 8.0 | 12.9 | 0.00 | 0.00 | 0.00 | 62 | 1003.4 |
| 20260505003517 | 23 | 191 | 8.0 | 9.7 | 0.00 | 0.00 | 0.00 | 62 | 1003.5 |
| 20260505003014 | 23 | 226 | 6.4 | 6.4 | 0.00 | 0.00 | 0.00 | 62 | 1003.4 |